Location: Robledo de Chavela
(40.5014°N, 4.2377°W)
Time: 11:51:57
(UTC+00:00)

Sich 1 Rocket - Pass Details

Date: 18 April 2024
Orbit: 614 x 648 km, 82.5° (Epoch: 27 May)

Event Time Altitude Azimuth Distance (km) Brightness Sun altitude
Exits shadow 20:42:03 10° 190° (S) 1,987 5.9 -18.5°
Reaches altitude 10° 20:42:04 10° 190° (S) 1,979 5.9 -18.5°
Maximum altitude 20:46:27 80° 278° (W) 639 3.6 -19.2°
Drops below altitude 10° 20:50:55 10° 5° (N) 2,014 6.6 -19.9°
Sets 20:53:11 0° 7° (N) 2,932 7.4 -20.2°
